Weather History for Athens, OH

Change the Weather History Date:

Tuesday, February 5, 2013

  Actual Average (KPKB) Record (KPKB)
Temperature  
Mean Temperature 34 °F 33 °F  
Max Temperature 35 °F 42 °F 68 °F (1986)
Min Temperature 32 °F 24 °F -6 °F (1996)
Degree Days  
Heating Degree Days 32 32  
Since 1 July heating degree days 3107  
Moisture  
Dew Point 31 °F    
Average Humidity 92    
Maximum Humidity 99    
Minimum Humidity 79    
Precipitation  
Precipitation 0.00 in 0.10 in 0.94 in (2010)
Month to date precipitation 0.50  
Year to date precipitation 3.45  
Sea Level Pressure  
Sea Level Pressure 29.89 in    
Wind  
Wind Speed 2 mph (West)    
Max Wind Speed 10 mph    
Max Gust Speed 13 mph    
Visibility 5 miles    
Events      
T = Trace of Precipitation, MM = Missing Value Source: NWS Daily Summary

Daily Weather History Graph

Daily Weather History Graph

Search for Another Location

Airport:

Trip Planner

Search our weather history database for the weather conditions in past years. The results will help you decide how hot, cold, wet, or windy it might be!

Date:

Astronomy

Feb. 05, 2013 Rise Set
Actual Time 7:31 AM EST 5:54 PM EST
Civil Twilight 7:03 AM EST 6:22 PM EST
Nautical Twilight 6:31 AM EST 6:54 PM EST
Astronomical Twilight 6:00 AM EST 7:25 PM EST
Moon 3:11 AM EST (2/5) 1:11 PM EST (2/5)
Length of Visible Light 11h 19m
Length of Day
10h 23m
Waning Crescent, 27% of the Moon is Illuminated
Feb 5
Waning Crescent
Feb 10
New
Feb 17
First Quarter
Feb 25
Full
Mar 4
Last Quarter

Hourly Weather History & Observations

Time (EST) Temp. Windchill Dew Point Humidity Pressure Visibility Wind Dir Wind Speed Gust Speed Precip Events Conditions
12:15 AM 32.9 °F - 32.0 °F 96% 29.86 in 10.0 mi Calm Calm - N/A   Overcast
12:35 AM 32.5 °F - 32.0 °F 98% 29.86 in 7.0 mi Calm Calm - N/A   Overcast
12:55 AM 32.9 °F - 32.0 °F 96% 29.86 in 7.0 mi Calm Calm - N/A   Overcast
1:15 AM 32.2 °F - 31.6 °F 98% 29.86 in 4.0 mi Calm Calm - N/A   Overcast
1:35 AM 32.2 °F - 31.8 °F 99% 29.86 in 4.0 mi Calm Calm - N/A   Overcast
1:55 AM 32.2 °F - 31.8 °F 99% 29.86 in 4.0 mi Calm Calm - N/A   Overcast
2:15 AM 32.2 °F - 31.8 °F 99% 29.87 in 4.0 mi Calm Calm - N/A   Overcast
2:35 AM 32.0 °F - 31.5 °F 98% 29.87 in 3.0 mi Calm Calm - N/A   Overcast
2:55 AM 32.0 °F - 31.5 °F 98% 29.87 in 3.0 mi Calm Calm - N/A   Overcast
3:15 AM 32.5 °F 29.3 °F 32.0 °F 98% 29.86 in 7.0 mi South 3.5 mph - N/A   Overcast
3:35 AM 32.9 °F - 32.0 °F 96% 29.87 in 7.0 mi Calm Calm - N/A   Overcast
3:55 AM 32.5 °F - 32.0 °F 98% 29.86 in 4.0 mi Calm Calm - N/A   Overcast
4:15 AM 32.4 °F - 32.0 °F 99% 29.86 in 4.0 mi Calm Calm - N/A   Overcast
4:35 AM 32.2 °F - 31.8 °F 99% 29.86 in 4.0 mi Calm Calm - N/A   Overcast
4:55 AM 32.0 °F - 31.6 °F 99% 29.86 in 2.0 mi Calm Calm - N/A   Overcast
5:15 AM 32.0 °F - 31.6 °F 99% 29.85 in 3.0 mi Calm Calm - N/A   Overcast
5:35 AM 32.0 °F - 31.5 °F 98% 29.86 in 2.5 mi Calm Calm - N/A   Overcast
5:55 AM 32.0 °F 28.7 °F 31.5 °F 98% 29.88 in 2.0 mi West 3.5 mph - N/A   Overcast
6:15 AM 32.0 °F - 31.5 °F 98% 29.87 in 2.0 mi Calm Calm - N/A   Overcast
6:35 AM 32.0 °F - 31.6 °F 99% 29.85 in 3.0 mi Calm Calm - N/A   Overcast
6:55 AM 32.0 °F - 31.8 °F 99% 29.86 in 3.0 mi Calm Calm - N/A   Overcast
7:15 AM 32.0 °F - 31.6 °F 99% 29.86 in 3.0 mi Calm Calm - N/A   Overcast
7:35 AM 32.0 °F - 31.6 °F 99% 29.86 in 2.5 mi Calm Calm - N/A   Overcast
7:55 AM 32.0 °F - 31.6 °F 99% 29.87 in 2.5 mi Calm Calm - N/A   Overcast
8:15 AM 32.0 °F - 31.8 °F 99% 29.88 in 2.0 mi Calm Calm - N/A   Overcast
8:35 AM 32.0 °F - 31.8 °F 99% 29.88 in 1.2 mi Calm Calm - N/A   Overcast
8:55 AM 32.2 °F - 32.0 °F 99% 29.88 in 1.0 mi Calm Calm - N/A   Overcast
9:15 AM 32.4 °F - 32.0 °F 99% 29.88 in 1.0 mi Calm Calm - N/A   Overcast
9:35 AM 32.4 °F 29.1 °F 32.0 °F 99% 29.89 in 1.0 mi West 3.5 mph - N/A   Overcast
9:55 AM 32.9 °F - 32.2 °F 97% 29.88 in 1.8 mi Calm Calm - N/A   Overcast
10:15 AM 32.5 °F 29.3 °F 32.0 °F 98% 29.89 in 3.0 mi NNW 3.5 mph - N/A   Overcast
10:35 AM 33.1 °F 28.7 °F 32.4 °F 97% 29.89 in 3.0 mi West 4.6 mph - N/A   Overcast
10:55 AM 33.1 °F 28.7 °F 32.2 °F 96% 29.90 in 4.0 mi WNW 4.6 mph - N/A   Overcast
11:15 AM 33.8 °F 29.6 °F 32.7 °F 96% 29.90 in 5.0 mi West 4.6 mph - N/A   Overcast
11:35 AM 34.2 °F 28.2 °F 32.0 °F 92% 29.91 in 7.0 mi WNW 6.9 mph - N/A   Overcast
11:55 AM 34.5 °F 27.9 °F 31.8 °F 90% 29.91 in 7.0 mi West 8.1 mph - N/A   Overcast
12:15 PM 34.2 °F 27.5 °F 31.1 °F 89% 29.91 in 7.0 mi West 8.1 mph - N/A   Overcast
12:35 PM 34.0 °F 26.6 °F 30.7 °F 88% 29.90 in 5.0 mi West 9.2 mph - N/A   Overcast
12:55 PM 34.2 °F 26.2 °F 30.2 °F 85% 29.91 in 5.0 mi West 10.4 mph - N/A   Overcast
1:15 PM 34.7 °F 26.9 °F 30.2 °F 84% 29.90 in 5.0 mi West 10.4 mph - N/A   Haze
1:35 PM 34.3 °F 27.7 °F 29.5 °F 82% 29.90 in 7.0 mi West 8.1 mph - N/A   Overcast
1:55 PM 34.3 °F 27.0 °F 29.3 °F 82% 29.89 in 7.0 mi WSW 9.2 mph - N/A   Mostly Cloudy
2:15 PM 34.2 °F 26.8 °F 28.9 °F 81% 29.89 in 7.0 mi West 9.2 mph 12.7 mph N/A   Mostly Cloudy
2:35 PM 34.0 °F 26.6 °F 28.8 °F 81% 29.89 in 7.0 mi West 9.2 mph - N/A   Overcast
2:55 PM 34.2 °F 29.0 °F 29.3 °F 82% 29.89 in 5.0 mi WSW 5.8 mph - N/A   Haze
3:15 PM 34.3 °F 27.0 °F 29.7 °F 83% 29.89 in 5.0 mi WSW 9.2 mph - N/A   Overcast
3:35 PM 34.7 °F 30.6 °F 30.0 °F 83% 29.89 in 5.0 mi WSW 4.6 mph - N/A   Haze
3:55 PM 34.7 °F 31.8 °F 30.0 °F 83% 29.89 in 5.0 mi WSW 3.5 mph - N/A   Haze
4:15 PM 34.7 °F - 30.2 °F 84% 29.89 in 5.0 mi Calm Calm - N/A   Haze
4:35 PM 35.1 °F 32.2 °F 30.2 °F 82% 29.89 in 5.0 mi West 3.5 mph - N/A   Haze
4:55 PM 35.1 °F - 30.2 °F 82% 29.89 in 5.0 mi Calm Calm - N/A   Haze
5:15 PM 34.7 °F - 30.2 °F 84% 29.89 in 7.0 mi Calm Calm - N/A   Overcast
5:35 PM 34.9 °F - 30.4 °F 84% 29.88 in 7.0 mi Calm Calm - N/A   Overcast
5:55 PM 33.8 °F 30.8 °F 30.2 °F 87% 29.87 in 7.0 mi ENE 3.5 mph - N/A   Overcast
6:15 PM 33.8 °F 30.8 °F 30.6 °F 88% 29.87 in 7.0 mi ENE 3.5 mph - N/A   Overcast
6:35 PM 34.0 °F - 30.2 °F 86% 29.87 in 7.0 mi Calm Calm - N/A   Overcast
6:55 PM 33.3 °F - 30.2 °F 89% 29.86 in 7.0 mi Calm Calm - N/A   Overcast
7:15 PM 33.4 °F - 30.2 °F 88% 29.88 in 5.0 mi Calm Calm - N/A   Overcast
7:35 PM 33.1 °F - 30.7 °F 91% 29.89 in 5.0 mi Calm Calm - N/A   Overcast
7:55 PM 32.9 °F - 30.6 °F 91% 29.89 in 5.0 mi Calm Calm - N/A   Overcast
8:15 PM 32.9 °F - 30.9 °F 92% 29.89 in 5.0 mi Calm Calm - N/A   Overcast
8:35 PM 32.5 °F - 30.9 °F 94% 29.89 in 4.0 mi Calm Calm - N/A   Overcast
8:55 PM 32.9 °F - 30.9 °F 92% 29.90 in 5.0 mi Calm Calm - N/A   Overcast
9:15 PM 32.9 °F - 30.7 °F 92% 29.91 in 5.0 mi Calm Calm - N/A   Overcast
9:35 PM 32.7 °F - 30.7 °F 92% 29.92 in 5.0 mi Calm Calm - N/A   Overcast
9:55 PM 32.9 °F 28.5 °F 30.6 °F 91% 29.94 in 5.0 mi NNW 4.6 mph - N/A   Overcast
10:15 PM 32.9 °F - 30.6 °F 91% 29.95 in 5.0 mi Calm Calm - N/A   Overcast
10:35 PM 34.7 °F 28.8 °F 31.1 °F 87% 29.96 in 7.0 mi WNW 6.9 mph - N/A   Overcast
10:55 PM 35.1 °F 29.3 °F 30.0 °F 82% 29.97 in 10.0 mi WNW 6.9 mph - N/A   Overcast
11:15 PM 35.1 °F 28.6 °F 29.1 °F 79% 29.98 in 10.0 mi WNW 8.1 mph - N/A   Overcast
11:35 PM 34.9 °F 28.3 °F 28.9 °F 79% 29.98 in 10.0 mi WNW 8.1 mph - N/A   Overcast
11:55 PM 34.7 °F 27.5 °F 29.1 °F 80% 29.98 in 10.0 mi West 9.2 mph - N/A   Overcast